Regional Weather Roundup
Issued by NWS Green Bay, WI

Home | Current Version | Previous Version | Text Only | Print | Product List | Glossary On
Versions: 1 2 3 4 5 6 7 8 9 10 11 12 13 14 15 16 17 18 19 20 21 22 23 24 25 26 27 28 29 30 31 32 33 34 35 36 37 38 39 40 41 42 43 44 45 46 47 48 49 50
000
ASUS43 KGRB 110310
RWRGRB

NORTH-CENTRAL AND NORTHEAST WISCONSIN REGIONAL WEATHER ROUNDUP
NATIONAL WEATHER SERVICE GREEN BAY WI
1000 PM CDT THU JUL 10 2014

WIZ005-009-010>012-018-019-110400-
NORTH CENTRAL WISCONSIN

CITY           SKY/WX    TMP DP  RH WIND       PRES   REMARKS
IRONWOOD       NOT AVBL
MANITOWISH WTR MOCLDY    65  59  81 S3        30.08R
ARBOR VITAE    PTCLDY    65  58  77 SE3       30.09R
EAGLE RIVER    PTCLDY    64  55  72 S5        30.10R
LAND O LAKES   PTCLDY    61  56  82 CALM      30.10S
RHINELANDER    PTCLDY    65  58  78 SE5       30.11R
PHILLIPS       MOCLDY    69  62  78 S6        30.07R
ANTIGO         PTCLDY    62  58  86 SE7       30.12R
TOMAHAWK       PTCLDY    62  58  87 CALM      30.10R
MERRILL        MOCLDY    68  61  78 CALM      30.10R
$$

WIZ013-073-110400-
NORTHEAST WISCONSIN

CITY           SKY/WX    TMP DP  RH WIND       PRES   REMARKS
IRON MOUNTAIN  CLEAR     62  55  77 SE7       30.11R
MARINETTE      CLEAR     63  52  67 S7        30.13R
OCONTO         CLEAR     64  53  66 S7        30.13R
$$

WIZ017-030-035>037-045-110400-
CENTRAL WISCONSIN

CITY           SKY/WX    TMP DP  RH WIND       PRES   REMARKS
MEDFORD        CLOUDY    67  64  87 SE6       30.09R
WAUSAU         MOCLDY    70  61  73 S8        30.08R
MOSINEE        MOCLDY    68  63  83 SE6       30.11R
MARSHFIELD     MOCLDY    68  64  87 S6        30.09R
WISC RAPIDS    MOCLDY    70  62  76 S6        30.11R
STEVENS POINT  PTCLDY    67  59  74 SE6       30.11R
WAUPACA        PTCLDY    71  60  68 SE7       30.12R
SHAWANO        PTCLDY    67  55  66 S7        30.12S
CLINTONVILLE   PTCLDY    66  57  72 SE7       30.11S
$$

WIZ038-039-048-051-110400-
FOX VALLEY

CITY           SKY/WX    TMP DP  RH WIND       PRES   REMARKS
NWS GREEN BAY  PTCLDY    65  52  62 S10       30.14R
APPLETON       MOCLDY    66  54  63 SE10G18   30.14R
OSHKOSH        PTCLDY    65  55  70 S8        30.13R
FOND DU LAC    PTCLDY    64  53  67 SE13      30.15R
$$

WIZ022-050-052-110400-
EAST CENTRAL WISCONSIN

CITY           SKY/WX    TMP DP  RH WIND       PRES   REMARKS
STURGEON BAY   CLEAR     61  48  63 S9        30.15S
MANITOWOC      CLEAR     62  52  69 S7        30.16R
SHEBOYGAN      MOCLDY    61  54  77 S6        30.17R
$$

LMZ563-521-522-541>543-110400-
LAKESHORE

STATION/POSITION TIME  TEMP    WIND        PRES    VSBY  WAVE
                       AIR SEA DIR/SP/G                  HT/PER
                 (UTC) (F)     (DEG/KT/KT) (MB)    (MI)  (FT/S)
SHEBOYGAN LKSHOR 0300   63     200/  7/  8 1021.8R
KEWAUNEE LKSHORE 0300   54     180/  4/  5 1021.6S
ALGOMA MARINA    0300          230/ 11/ 12   N/A
NORTHPORT PIER   0300   62     170/  5/  8 1020.7S
N MID LAKE BUOY  0300   58 56  190/  4/  6 1021.0R         0
SISTER BAY LKSHO 0200   61     160/  9/ 11   N/A
MENOMINEE LKSHOR 0300   66     170/ 10/ 15 1020.9R
$$



USA.gov is the U.S. government's official web portal to all federal, state and local government web resources and services.